Es ist keine erhöhte Aufmerksamkeit aufgrund des Wetters notwendig.    Es gibt keine Warnungen.
Webcam Vorhersage DWD Regenradar Wetterlage NRW Blitze Wind GFS-Modell
webcam


Kleve - Düffelward SSO more information Kleve - Düffelward SSO


Goch more information Goch


Weitere Templates dieser Seite und andere Webseiten:

Meteotemplate

Awekas - Template

weather34 - Template

Wetter aus Willich

Hubert Reyers' Wetter


te
World Weather Websites
 
 
 

METAR-Meldungen aus der Umgebung

   
EHDL - Nijmegen
Aktualisierung: 02-03-2021 08:25
Nebel, Klar  
Nebel, Klar  
   Wind: variiert 5.6 km/h
Wind: variiert 5.6 km/h
Temperatur: 3°C
Gefühlt: 2°C
Taupunkt: 2°C
Luftfeuchte: 93%
Luftdruck: 1031 hPa
Bewölkt: Klar
Sichtbarkeit: 5 km
Bewölkung: Klar
EHDL 020725Z AUTO VRB03KT 4500 BR NCD 03/02 Q1031 GRN
EHDL - Arnhem
Aktualisierung: 02-03-2021 08:25
Nebel, Klar  
Nebel, Klar  
   Wind: variiert 5.6 km/h
Wind: variiert 5.6 km/h
Temperatur: 3°C
Gefühlt: 2°C
Taupunkt: 2°C
Luftfeuchte: 93%
Luftdruck: 1031 hPa
Bewölkt: Klar
Sichtbarkeit: 5 km
Bewölkung: Klar
EHDL 020725Z AUTO VRB03KT 4500 BR NCD 03/02 Q1031 GRN
EHAM - Amsterdam
Aktualisierung: 02-03-2021 08:25
Teilweise bewölkt  
Teilweise bewölkt  
   Wind: ONO 9.3 km/h
Wind: ONO 9.3 km/h
Temperatur: 2°C
Gefühlt: -1°C
Taupunkt: 1°C
Luftfeuchte: 93%
Luftdruck: 1031 hPa
Bewölkt: Teilweise bewölkt
Sichtbarkeit: 6 km
Bewölkung: Teilweise bewölkt
EHAM 020725Z 06005KT 6000 NSC 02/01 Q1031 BECMG 8000
EHDL - Ede
Aktualisierung: 02-03-2021 08:25
Nebel, Klar  
Nebel, Klar  
   Wind: variiert 5.6 km/h
Wind: variiert 5.6 km/h
Temperatur: 3°C
Gefühlt: 2°C
Taupunkt: 2°C
Luftfeuchte: 93%
Luftdruck: 1031 hPa
Bewölkt: Klar
Sichtbarkeit: 5 km
Bewölkung: Klar
EHDL 020725Z AUTO VRB03KT 4500 BR NCD 03/02 Q1031 GRN
EHDL - Emmen
Aktualisierung: 02-03-2021 08:25
Nebel, Klar  
Nebel, Klar  
   Wind: variiert 5.6 km/h
Wind: variiert 5.6 km/h
Temperatur: 3°C
Gefühlt: 2°C
Taupunkt: 2°C
Luftfeuchte: 93%
Luftdruck: 1031 hPa
Bewölkt: Klar
Sichtbarkeit: 5 km
Bewölkung: Klar
EHDL 020725Z AUTO VRB03KT 4500 BR NCD 03/02 Q1031 GRN
EHAM - Den Haag
Aktualisierung: 02-03-2021 08:25
Teilweise bewölkt  
Teilweise bewölkt  
   Wind: ONO 9.3 km/h
Wind: ONO 9.3 km/h
Temperatur: 2°C
Gefühlt: -1°C
Taupunkt: 1°C
Luftfeuchte: 93%
Luftdruck: 1031 hPa
Bewölkt: Teilweise bewölkt
Sichtbarkeit: 6 km
Bewölkung: Teilweise bewölkt
EHAM 020725Z 06005KT 6000 NSC 02/01 Q1031 BECMG 8000
EHAM - Apeldoorn
Aktualisierung: 02-03-2021 08:25
Teilweise bewölkt  
Teilweise bewölkt  
   Wind: ONO 9.3 km/h
Wind: ONO 9.3 km/h
Temperatur: 2°C
Gefühlt: -1°C
Taupunkt: 1°C
Luftfeuchte: 93%
Luftdruck: 1031 hPa
Bewölkt: Teilweise bewölkt
Sichtbarkeit: 6 km
Bewölkung: Teilweise bewölkt
EHAM 020725Z 06005KT 6000 NSC 02/01 Q1031 BECMG 8000
EHAM - Leeuwarden
Aktualisierung: 02-03-2021 08:25
Teilweise bewölkt  
Teilweise bewölkt  
   Wind: ONO 9.3 km/h
Wind: ONO 9.3 km/h
Temperatur: 2°C
Gefühlt: -1°C
Taupunkt: 1°C
Luftfeuchte: 93%
Luftdruck: 1031 hPa
Bewölkt: Teilweise bewölkt
Sichtbarkeit: 6 km
Bewölkung: Teilweise bewölkt
EHAM 020725Z 06005KT 6000 NSC 02/01 Q1031 BECMG 8000
TNCC - Willemstad
Aktualisierung: 02-03-2021 08:00
Light Showers, Regen, leicht bewölkt  
Light Showers, Regen, leicht bewölkt  
   Wind: OSO 11.1 km/h
Wind: OSO 11.1 km/h
Temperatur: 24°C
Taupunkt: 19°C
Luftfeuchte: 74%
Luftdruck: 1011 hPa
Bewölkt: leicht bewölkt
Sichtbarkeit: More than 10 km
Bewölkung: leicht bewölkt 579.1 m
TNCC 020700Z 12006KT 9999 -SHRA FEW019 24/19 Q1011 NOSIG
EHEH - Eindhoven
Aktualisierung: 01-03-2021 13:14
Nicht aktuell
Nebel, leicht bewölkt  
Nebel, leicht bewölkt  
   Wind: NO 14.8 km/h
Wind: NO 14.8 km/h
Temperatur: 7°C
Gefühlt: 4°C
Taupunkt: 4°C
Luftfeuchte: 81%
Luftdruck: 1033 hPa
Bewölkt: leicht bewölkt
Sichtbarkeit: 9 km
Bewölkung: leicht bewölkt 335.3 m
EHEH 011214Z AUTO 05008KT 010V080 9000 BR FEW011 07/04 Q1033 BLU NOSIG
EHAM - Middelburg
Aktualisierung: 02-03-2021 08:25
Teilweise bewölkt  
Teilweise bewölkt  
   Wind: ONO 9.3 km/h
Wind: ONO 9.3 km/h
Temperatur: 2°C
Gefühlt: -1°C
Taupunkt: 1°C
Luftfeuchte: 93%
Luftdruck: 1031 hPa
Bewölkt: Teilweise bewölkt
Sichtbarkeit: 6 km
Bewölkung: Teilweise bewölkt
EHAM 020725Z 06005KT 6000 NSC 02/01 Q1031 BECMG 8000
EHAM - Delfzijl
Aktualisierung: 02-03-2021 08:25
Teilweise bewölkt  
Teilweise bewölkt  
   Wind: ONO 9.3 km/h
Wind: ONO 9.3 km/h
Temperatur: 2°C
Gefühlt: -1°C
Taupunkt: 1°C
Luftfeuchte: 93%
Luftdruck: 1031 hPa
Bewölkt: Teilweise bewölkt
Sichtbarkeit: 6 km
Bewölkung: Teilweise bewölkt
EHAM 020725Z 06005KT 6000 NSC 02/01 Q1031 BECMG 8000

Script entwickelt von  Saratoga-weather.org Angepasst für das Template von  Weerstation Leuven

Sie finden Wetter-Infos dieser Station auch auf:

UK Metoffice

European Weather Network

WeatherCloud

Weather Underground

AWEKAS

Neuwetter

Wettersektor

Von uns verwendete Ausrüstung:

Wetterstation
Davis Vantage Pro2

Wetterprogramm
Meteobridge

WetterComputer
Computer

Davis Vantage Pro2

Meteobridge

Computer